TimeEST,TemperatureF,Dew PointF,Humidity,Sea Level PressureIn,VisibilityMPH,Wind Direction,Wind SpeedMPH,Gust SpeedMPH,PrecipitationIn,Events,Conditions,WindDirDegrees,DateUTC
12:53 AM,73.0,66.0,79,30.04,10.0,NE,6.9,-,0.00,Rain,Light Rain,40,2012-11-18 05:53:00
1:53 AM,73.0,64.9,76,30.02,10.0,NE,11.5,-,0.00,,Overcast,40,2012-11-18 06:53:00
2:53 AM,73.0,64.9,76,30.01,10.0,NNE,11.5,-,N/A,,Clear,30,2012-11-18 07:53:00
3:53 AM,72.0,64.9,78,30.02,10.0,NE,11.5,-,N/A,,Scattered Clouds,40,2012-11-18 08:53:00
4:53 AM,72.0,64.9,78,30.01,10.0,NE,10.4,-,N/A,,Clear,40,2012-11-18 09:53:00
5:53 AM,71.1,64.9,81,30.03,10.0,NE,8.1,-,N/A,,Mostly Cloudy,40,2012-11-18 10:53:00
6:53 AM,72.0,64.0,76,30.04,10.0,NNE,11.5,-,N/A,,Clear,30,2012-11-18 11:53:00
7:53 AM,73.0,64.9,76,30.05,10.0,NE,12.7,-,N/A,,Clear,40,2012-11-18 12:53:00
8:53 AM,73.9,64.9,73,30.07,10.0,NNE,9.2,-,N/A,,Clear,30,2012-11-18 13:53:00
9:53 AM,73.9,64.9,73,30.07,10.0,NNE,11.5,-,N/A,,Clear,30,2012-11-18 14:53:00
10:53 AM,77.0,66.0,69,30.08,10.0,NE,12.7,-,N/A,,Clear,40,2012-11-18 15:53:00
11:53 AM,78.1,66.0,66,30.06,10.0,NNE,11.5,-,N/A,,Clear,30,2012-11-18 16:53:00
12:53 PM,80.1,64.9,60,30.04,10.0,NE,10.4,-,N/A,,Scattered Clouds,50,2012-11-18 17:53:00
1:53 PM,78.1,64.9,64,30.03,10.0,NE,10.4,-,N/A,,Mostly Cloudy,50,2012-11-18 18:53:00
2:53 PM,78.1,64.0,62,30.02,10.0,NE,11.5,-,N/A,,Partly Cloudy,50,2012-11-18 19:53:00
3:53 PM,79.0,64.9,62,30.03,10.0,NE,11.5,-,N/A,,Clear,50,2012-11-18 20:53:00
4:53 PM,78.1,64.9,64,30.04,10.0,NE,12.7,-,N/A,,Clear,50,2012-11-18 21:53:00
5:53 PM,75.9,63.0,64,30.05,10.0,ENE,10.4,-,N/A,,Clear,70,2012-11-18 22:53:00
6:53 PM,75.9,64.9,69,30.06,10.0,NE,11.5,-,N/A,,Clear,50,2012-11-18 23:53:00
7:53 PM,75.0,64.9,71,30.08,10.0,NNE,9.2,-,N/A,,Clear,30,2012-11-19 00:53:00
8:53 PM,75.0,64.9,71,30.10,10.0,NNE,9.2,-,N/A,,Clear,30,2012-11-19 01:53:00
9:53 PM,73.9,64.0,71,30.09,10.0,NNE,12.7,20.7,N/A,,Clear,30,2012-11-19 02:53:00
10:53 PM,73.0,64.0,73,30.09,10.0,NE,13.8,20.7,N/A,,Clear,40,2012-11-19 03:53:00
11:53 PM,72.0,64.0,76,30.09,10.0,NE,10.4,-,N/A,,Clear,40,2012-11-19 04:53:00